Location: Chandolas
(44.4033°N, 4.2533°E)
Time: 15:26:47
(UTC+00:00)

Cosmos 1500 Rocket - Pass Details

Date: 15 November 2019
Orbit: 602 x 632 km, 82.5° (Epoch: 06 December)

Event Time Altitude Azimuth Distance (km) Brightness Sun altitude
Rises 05:57:38 0° 189° (S) 2,912 7.1 -7.6°
Reaches altitude 10° 05:59:51 10° 190° (S) 2,008 6.3 -7.2°
Maximum altitude 06:04:19 83° 279° (W) 642 3.6 -6.5°
Drops below altitude 10° 06:08:48 10° 7° (N) 2,015 6.1 -5.7°
Sets 06:11:03 0° 8° (N) 2,923 6.9 -5.3°
